Location: Newark
(31.5350°N, 35.0986°E)
Time: 21:24:28
(UTC+00:00)

Vanguard 1 - Pass Details

Date: 30 September 2019
Orbit: 653 x 3830 km, 34.3° (Epoch: 14 October)

Event Time Altitude Azimuth Distance (km) Brightness Sun altitude
Rises 03:41:05 0° 291° (WNW) 7,944 14.1 1.0°
Reaches altitude 10° 03:46:57 10° 287° (WNW) 6,768 13.7 2.3°
Maximum altitude 04:06:55 53° 219° (SW) 3,167 12.6 6.5°
Drops below altitude 10° 04:18:48 10° 146° (SE) 4,205 14.0 9.0°
Sets 04:21:33 0° 140° (SE) 4,863 14.5 9.6°
